[[{"header":{"parameterUnit":"m.s-1","parameterCategory":1,"la1":30.2991,"la2":30.254,"lo1":-89.0895,"lo2":-89.0444,"dy":0.0017,"dx":0.0017,"nx":28,"ny":28,"refTime":"2024-11-29T03:00:00:Z","depth":0,"parameterNumber":2,"parameterNumberName":"U-component_of_WINDS"},"data":[0,0,0,0,0,0,0,0,0,0,0,0,0,0,0,0,0,0,0,0,0,0,0,0,0,0,0,0,0,0,0,0,0,0,0,0,0,0,0,0,0,0,0,0,0,0,0,0,0,0,0,0,0,0,0,0,0,0,-2.6152,-2.6152,0,-2.6156,-2.6156,-2.6156,-2.6073,-2.6071,-2.6068,-2.6066,-2.6075,-2.6077,-2.6079,0,0,0,0,0,0,0,0,0,0,0,0,0,-2.6076,-2.6078,-2.6152,-2.6152,-2.6152,-2.6156,-2.6156,-2.6156,-2.6073,-2.6071,-2.6068,-2.6065,-2.6074,-2.6077,-2.6079,0,0,0,0,0,0,0,0,0,0,0,0,0,-2.6097,-2.6078,-2.6152,-2.6111,-2.6107,-2.6156,-2.6156,-2.6156,-2.6074,-2.607,-2.6067,-2.6064,-2.6073,-2.6076,-2.608,-2.6169,0,0,-2.609,-2.6092,0,0,0,0,0,0,0,0,-2.6096,-2.61,-2.6117,-2.6114,-2.611,-2.611,-2.6132,-2.616,-2.6075,-2.6087,-2.6066,-2.6062,-2.6089,-2.6091,-2.61,-2.6169,-2.6169,-2.6091,-2.6093,-2.6094,-2.6095,0,0,0,0,0,0,0,-2.6095,-2.61,-2.6153,-2.6117,-2.6113,-2.6094,-2.6093,-2.6137,-2.6107,-2.6085,-2.6079,-2.6081,-2.6087,-2.6097,-2.6099,-2.617,-2.6091,-2.6094,-2.6096,-2.6097,-2.6314,-2.6318,0,0,0,0,0,0,-2.6098,-2.6099,-2.6153,-2.6153,-2.6094,-2.6098,-2.6097,-2.6114,-2.6106,-2.6102,-2.6084,-2.6077,-2.6092,-2.6095,-2.6099,-2.6204,-2.6094,-2.6097,-2.6099,-2.6311,-2.6315,-2.6319,0,0,0,0,0,0,-2.6097,-2.6104,-2.6153,-2.6125,-2.6129,-2.6103,-2.6122,-2.6115,-2.6125,-2.6105,-2.61,-2.6099,-2.609,-2.6094,-2.6152,-2.6204,-2.6099,-2.6102,-2.6306,-2.6312,-2.6317,-2.6415,0,0,0,0,0,0,-2.6095,-2.6104,-2.6137,-2.6126,-2.6131,-2.6205,-2.6125,-2.6118,-2.6131,-2.6122,-2.6118,-2.6114,-2.6087,-2.6148,-2.6156,-2.6207,-2.6105,-2.6302,-2.6309,-2.6315,-2.6407,-2.6423,-2.6437,0,0,0,0,0,-2.6093,-2.6164,-2.6139,-2.6146,-2.6171,-2.6208,-2.6211,-2.6178,-2.6135,-2.6169,-2.6156,-2.6114,-2.6196,-2.6154,-2.6163,-2.6215,-2.6298,-2.6307,-2.6315,-2.6401,-2.642,-2.6437,0,0,0,0,0,0,-2.6183,-2.6162,-2.6133,-2.6203,-2.6208,-2.6194,-2.6235,-2.62,-2.6218,-2.6209,-2.6168,-2.6168,-2.6233,-2.623,-2.6183,-2.6302,-2.624,-2.625,-2.6302,-2.6321,-2.6335,-2.6336,-2.6108,0,0,0,0,0,-2.6211,-2.6241,-2.6222,-2.6286,-2.6289,-2.6262,-2.6277,-2.6251,-2.6255,-2.6257,-2.6248,-2.6254,-2.6282,-2.6301,-2.6324,-2.6406,-2.6405,-2.6446,-2.6461,-2.6474,-2.6484,-2.6528,-2.6547,-2.6346,-2.6346,-2.6346,0,0,-2.6269,-2.6261,-2.6283,-2.6304,-2.6304,-2.6338,-2.6264,-2.6303,-2.6328,-2.6263,-2.6317,-2.6311,-2.6316,-2.6386,-2.6417,-2.6385,-2.6539,-2.6484,-2.6494,-2.6498,-2.6539,-2.6558,-2.6575,-2.6352,-2.6351,-2.635,0,0,-2.6393,-2.6389,-2.6443,-2.6445,-2.6446,-2.6427,-2.6441,-2.6432,-2.6425,-2.6479,-2.6431,-2.6461,-2.6508,-2.6514,-2.6523,-2.665,-2.6613,-2.6659,-2.6738,-2.6782,-2.6798,-2.6812,-2.6859,-2.6876,-2.6669,-2.6669,-2.6669,0,-2.6465,-2.6513,-2.6475,-2.6517,-2.6528,-2.6469,-2.6524,-2.6528,-2.6538,-2.6548,-2.6512,-2.6572,-2.657,-2.6642,-2.6673,-2.6682,-2.6697,-2.666,-2.6798,-2.6812,-2.6824,-2.6869,-2.6887,-2.6675,-2.6674,-2.6673,-2.6673,0,-2.6603,-2.6638,-2.6681,-2.6691,-2.6707,-2.6756,-2.6726,-2.6747,-2.672,-2.6706,-2.6762,-2.6759,-2.6782,-2.6796,-2.6771,-2.6866,-2.6846,-2.6805,-2.6742,-2.685,-2.6891,-2.6908,-2.6683,-2.6681,-2.6679,-2.6678,0,0,-2.6785,-2.6773,-2.679,-2.6794,-2.6792,-2.6819,-2.6865,-2.6886,-2.6906,-2.6915,-2.6955,-2.6996,-2.6959,-2.6969,-2.6943,-2.6982,-2.7085,-2.6936,-2.6936,-2.6966,-2.7192,-2.7225,-2.7245,-2.706,-2.7063,-2.7066,-2.7193,0,-2.6906,-2.6984,-2.6951,-2.7033,-2.7065,-2.701,-2.7051,-2.7055,-2.7043,-2.707,-2.7057,-2.7088,-2.7035,-2.7041,-2.7077,-2.7065,-2.7131,-2.7055,-2.7099,-2.7101,-2.7101,-2.7266,-2.73,-2.742,-2.7208,-2.7211,-2.7213,0,-2.7059,-2.7073,-2.7158,-2.7151,-2.7164,-2.7201,-2.7219,-2.7244,-2.7248,-2.7237,-2.7249,-2.7216,-2.7263,-2.7199,-2.7264,-2.7214,-2.723,-2.7227,-2.7231,-2.7235,-2.7165,-2.7277,-2.7457,-2.7477,-2.7238,-2.7236,-2.7234,0,-2.7185,-2.7226,-2.7282,-2.7288,-2.728,-2.7308,-2.7307,-2.7307,-2.7323,-2.7339,-2.7349,-2.737,-2.7383,-2.7401,-2.7375,-2.733,-2.7445,-2.7378,-2.7439,-2.744,-2.7467,-2.7466,-2.7655,-2.7474,-2.7474,-2.7474,-2.7473,0,-2.7325,-2.738,-2.7339,-2.7374,-2.7434,-2.7396,-2.7458,-2.745,-2.7451,-2.7485,-2.7438,-2.7472,-2.7434,-2.7464,-2.7443,-2.7502,-2.7508,-2.7501,-2.7496,-2.7507,-2.7508,-2.7518,-2.751,-2.7478,-2.7477,-2.7476,-2.7476,0,-2.7477,-2.7452,-2.751,-2.7498,-2.7497,-2.7542,-2.7532,-2.7565,-2.755,-2.7594,-2.7602,-2.7579,-2.7612,-2.7587,-2.7619,-2.7606,-2.7684,-2.7665,-2.7683,-2.7678,-2.7741,-2.7736,-2.7944,-2.7971,-2.7771,-2.7773,-2.7775,0,-2.7569,-2.761,-2.7603,-2.7622,-2.7623,-2.7654,-2.7669,-2.7634,-2.7652,-2.766,-2.7693,-2.7722,-2.7743,-2.7799,-2.7786,-2.7812,-2.7795,-2.7866,-2.7798,-2.7809,-2.7799,-2.7797,-2.7802,-2.788,-2.7883,-2.7885,-2.7886,0,-2.7737,-2.7722,-2.7745,-2.7765,-2.7785,-2.7799,-2.7809,-2.7828,-2.7792,-2.7815,-2.7848,-2.7865,-2.7898,-2.7928,-2.7949,-2.7949,-2.7913,-2.7907,-2.7923,-2.7936,-2.7945,-2.7943,-2.7722,-2.7903,-2.7901,-2.79,-2.7899,-2.7898,-2.7863,-2.7897,-2.7897,-2.7926,-2.7929,-2.7941,-2.7971,-2.796,-2.7986,-2.801,-2.7988,-2.8028,-2.8032,-2.8056,-2.8061,-2.8093,-2.8064,-2.8087,-2.8093,-2.8099,-2.8109,-2.7938,-2.8097,-2.8096,-2.8096,-2.8095,-2.8095,0,-2.8029,-2.8027,-2.8053,-2.8069,-2.8092,-2.8053,-2.8063,-2.8085,-2.8121,-2.8127,-2.8149,-2.8188,-2.8217,-2.8207,-2.8233,-2.8261,-2.8246,-2.827,-2.8268,-2.827,-2.8132,-2.8117,-2.8282,-2.8282,-2.8282,-2.8282,-2.8282,-2.8282,-2.8118,-2.8175,-2.8161,-2.822,-2.8217,-2.8255,-2.8264,-2.8275,-2.828,-2.8325,-2.8349,-2.8341,-2.8342,-2.8368,-2.8394,-2.839,-2.8403,-2.8434,-2.8425,-2.8297,-2.8279,-2.8261,-2.8247,-2.8436,-2.8437,-2.8559,-2.856,-2.8561]},{"header":{"parameterUnit":"m.s-1","parameterCategory":1,"la1":30.2991,"la2":30.254,"lo1":-89.0895,"lo2":-89.0444,"dy":0.0017,"dx":0.0017,"nx":28,"ny":28,"refTime":"2024-11-29T03:00:00:Z","depth":0,"parameterNumber":3,"parameterNumberName":"V-component_of_WINDS"},"data":[0,0,0,0,0,0,0,0,0,0,0,0,0,0,0,0,0,0,0,0,0,0,0,0,0,0,0,0,0,0,0,0,0,0,0,0,0,0,0,0,0,0,0,0,0,0,0,0,0,0,0,0,0,0,0,0,0,0,-0.2744,-0.2745,0,-0.283,-0.2831,-0.2832,-0.2845,-0.2844,-0.2843,-0.2843,-0.2934,-0.2937,-0.294,0,0,0,0,0,0,0,0,0,0,0,0,0,-0.2591,-0.2594,-0.2743,-0.2745,-0.2746,-0.283,-0.2831,-0.2832,-0.2845,-0.2844,-0.2843,-0.2842,-0.2933,-0.2937,-0.2941,0,0,0,0,0,0,0,0,0,0,0,0,0,-0.2665,-0.2595,-0.2743,-0.2762,-0.2765,-0.283,-0.2831,-0.2833,-0.2845,-0.2844,-0.2843,-0.2842,-0.2932,-0.2936,-0.2941,-0.2994,0,0,-0.2956,-0.2958,0,0,0,0,0,0,0,0,-0.2661,-0.2671,-0.2758,-0.2761,-0.2764,-0.2825,-0.2811,-0.2887,-0.2846,-0.2815,-0.2843,-0.2841,-0.2899,-0.2906,-0.2925,-0.2998,-0.3002,-0.2956,-0.2959,-0.2961,-0.2962,0,0,0,0,0,0,0,-0.2656,-0.2667,-0.2778,-0.276,-0.2763,-0.2767,-0.2776,-0.2825,-0.2863,-0.2817,-0.2819,-0.2828,-0.29,-0.2921,-0.2928,-0.3004,-0.2956,-0.296,-0.2963,-0.2965,-0.3124,-0.3126,0,0,0,0,0,0,-0.2647,-0.2663,-0.2775,-0.278,-0.2709,-0.2771,-0.2781,-0.2807,-0.2862,-0.2869,-0.2829,-0.2829,-0.2913,-0.2922,-0.2931,-0.2997,-0.2961,-0.2965,-0.2968,-0.3123,-0.3125,-0.3126,0,0,0,0,0,0,-0.2644,-0.2657,-0.2772,-0.2722,-0.2737,-0.2774,-0.2804,-0.2809,-0.283,-0.2871,-0.2878,-0.2843,-0.2913,-0.2924,-0.2978,-0.3,-0.2968,-0.2972,-0.3121,-0.3124,-0.3125,-0.3129,0,0,0,0,0,0,-0.2639,-0.2656,-0.2676,-0.2722,-0.2739,-0.2817,-0.2805,-0.2812,-0.2837,-0.2837,-0.2886,-0.2893,-0.2913,-0.2971,-0.2983,-0.3006,-0.2976,-0.312,-0.3122,-0.3125,-0.3127,-0.3131,-0.3134,0,0,0,0,0,-0.2634,-0.2674,-0.2677,-0.2691,-0.2766,-0.2818,-0.2828,-0.2849,-0.2839,-0.286,-0.2887,-0.2891,-0.2995,-0.2976,-0.299,-0.3015,-0.3118,-0.3122,-0.3125,-0.3126,-0.313,-0.3134,0,0,0,0,0,0,-0.2631,-0.2681,-0.2684,-0.2741,-0.2775,-0.282,-0.2848,-0.2853,-0.2892,-0.289,-0.2916,-0.2926,-0.2979,-0.3002,-0.298,-0.3069,-0.3056,-0.3062,-0.3052,-0.3057,-0.3061,-0.3055,-0.2979,0,0,0,0,0,-0.2637,-0.2674,-0.2716,-0.2762,-0.2779,-0.281,-0.2834,-0.2847,-0.2884,-0.2899,-0.2929,-0.2965,-0.3006,-0.3033,-0.3073,-0.313,-0.3141,-0.3154,-0.3157,-0.316,-0.3166,-0.3198,-0.3204,-0.3136,-0.3136,-0.3136,0,0,-0.2649,-0.2681,-0.2704,-0.2762,-0.279,-0.283,-0.2822,-0.2864,-0.2894,-0.2905,-0.2958,-0.2981,-0.3023,-0.3079,-0.3105,-0.31,-0.3186,-0.3164,-0.3166,-0.317,-0.3202,-0.3208,-0.3214,-0.3139,-0.3138,-0.3138,0,0,-0.2693,-0.272,-0.2761,-0.2789,-0.2831,-0.2851,-0.2861,-0.2905,-0.2921,-0.2974,-0.2983,-0.3018,-0.3088,-0.3118,-0.3142,-0.3195,-0.3201,-0.3207,-0.3226,-0.3258,-0.3263,-0.3268,-0.3288,-0.3294,-0.3212,-0.3212,-0.3212,0,-0.2704,-0.2763,-0.2782,-0.2824,-0.2849,-0.2859,-0.2902,-0.2928,-0.2981,-0.2999,-0.2992,-0.3079,-0.3108,-0.3171,-0.3184,-0.3202,-0.3215,-0.3203,-0.326,-0.3266,-0.327,-0.329,-0.3297,-0.3212,-0.3212,-0.3212,-0.3212,0,-0.2774,-0.2815,-0.2843,-0.2893,-0.2921,-0.2963,-0.2989,-0.3016,-0.3026,-0.3047,-0.3101,-0.3135,-0.3182,-0.3198,-0.3209,-0.3262,-0.3258,-0.3255,-0.3243,-0.3277,-0.3296,-0.3303,-0.3213,-0.3213,-0.3213,-0.3213,0,0,-0.282,-0.2879,-0.2889,-0.2912,-0.2958,-0.299,-0.3032,-0.3077,-0.31,-0.3135,-0.3172,-0.323,-0.3227,-0.3254,-0.3268,-0.3295,-0.3336,-0.329,-0.3291,-0.3298,-0.3398,-0.3401,-0.3409,-0.3339,-0.334,-0.3341,-0.3395,0,-0.287,-0.2945,-0.2963,-0.3027,-0.3064,-0.3074,-0.311,-0.3143,-0.3163,-0.3199,-0.3221,-0.3262,-0.3255,-0.3272,-0.3299,-0.3325,-0.3356,-0.3321,-0.3374,-0.3376,-0.3365,-0.3418,-0.3422,-0.347,-0.3402,-0.3403,-0.3404,0,-0.2939,-0.2975,-0.3042,-0.3083,-0.3099,-0.3132,-0.3174,-0.3208,-0.3245,-0.3257,-0.3287,-0.3298,-0.3342,-0.3326,-0.3388,-0.3364,-0.3386,-0.3402,-0.3404,-0.3412,-0.3393,-0.3428,-0.3486,-0.3494,-0.3415,-0.3414,-0.3414,0,-0.2967,-0.3032,-0.3081,-0.31,-0.3148,-0.3171,-0.3192,-0.3228,-0.3253,-0.329,-0.3307,-0.3349,-0.3372,-0.3405,-0.3427,-0.3413,-0.3487,-0.3473,-0.35,-0.3499,-0.3517,-0.3516,-0.3581,-0.3529,-0.3528,-0.3528,-0.3528,0,-0.3021,-0.3063,-0.3094,-0.3124,-0.3171,-0.3191,-0.3236,-0.3258,-0.3289,-0.3324,-0.3334,-0.3367,-0.3393,-0.343,-0.3447,-0.3496,-0.3506,-0.3518,-0.3523,-0.3519,-0.3517,-0.3535,-0.3533,-0.353,-0.353,-0.3529,-0.3529,0,-0.3062,-0.3084,-0.3138,-0.3179,-0.319,-0.3222,-0.3257,-0.3287,-0.3307,-0.3351,-0.3362,-0.3394,-0.3437,-0.3461,-0.3516,-0.3528,-0.3583,-0.3585,-0.357,-0.3572,-0.3599,-0.3596,-0.3679,-0.3691,-0.3629,-0.363,-0.363,0,-0.3096,-0.3127,-0.3171,-0.3194,-0.3216,-0.3254,-0.328,-0.33,-0.3327,-0.337,-0.3395,-0.3438,-0.3475,-0.3543,-0.3571,-0.3613,-0.3617,-0.3643,-0.3624,-0.3618,-0.3619,-0.3618,-0.3621,-0.3647,-0.3648,-0.3648,-0.3649,0,-0.3154,-0.3164,-0.32,-0.324,-0.327,-0.3303,-0.3335,-0.3354,-0.338,-0.3409,-0.3453,-0.348,-0.3535,-0.3579,-0.3623,-0.3645,-0.3652,-0.3654,-0.3663,-0.366,-0.365,-0.3657,-0.3581,-0.3653,-0.3652,-0.3652,-0.3652,-0.3651,-0.3194,-0.3222,-0.3257,-0.3297,-0.3323,-0.3353,-0.3383,-0.3405,-0.3442,-0.3488,-0.3497,-0.3544,-0.3579,-0.3638,-0.3662,-0.3699,-0.3694,-0.3707,-0.371,-0.3713,-0.3715,-0.3642,-0.3707,-0.3707,-0.3707,-0.3707,-0.3707,0,-0.3254,-0.3276,-0.3312,-0.3357,-0.3388,-0.3389,-0.3425,-0.3451,-0.3492,-0.3524,-0.3558,-0.3609,-0.365,-0.3681,-0.3724,-0.3747,-0.3751,-0.3758,-0.3758,-0.3763,-0.3716,-0.3705,-0.3754,-0.3754,-0.3754,-0.3754,-0.3754,-0.3754,-0.3289,-0.3337,-0.335,-0.3412,-0.3434,-0.3479,-0.3499,-0.3527,-0.3552,-0.3607,-0.3642,-0.3661,-0.3692,-0.3737,-0.3776,-0.3784,-0.38,-0.3806,-0.3815,-0.3771,-0.3766,-0.3761,-0.3751,-0.3809,-0.3809,-0.3859,-0.3859,-0.3859]}]]